When you browse on this site, cookies collect data to enhance your experience and personalize the content and advertising you see.
Visit our Privacy Policy to learn more. By continuing to use the site, you agree to this use of cookies and data.
  • In Österreich
  • Länderverzeichnis
  • Für 7 Tage
  • Wassertemperatur
  • Wetterkarte
  • News
  • Widgets
  • user-avatar
    Anmelden

    Stündliche Wetter Sidi Bu-l-Abbas

    Heute, 15 Dezember, Sonntag

    Zeit Temperatur Niederschläge Wind Luftdruck Luftfeuchtigkeit
    00:00 +12°C° 0 mm 1 m/S 721 mmHg 85%
    01:00 +12°C° 0 mm 1 m/S 720 mmHg 85%
    02:00 +11°C° 0 mm 1 m/S 720 mmHg 85%
    03:00 +10°C° 0 mm 0 m/S 720 mmHg 85%
    04:00 +10°C° 0 mm 0 m/S 720 mmHg 83%
    05:00 +10°C° 0 mm 0 m/S 720 mmHg 82%
    06:00 +10°C° 0 mm 0 m/S 720 mmHg 82%
    07:00 +12°C° 0 mm 0 m/S 720 mmHg 76%
    08:00 +13°C° 0 mm 0 m/S 720 mmHg 70%
    09:00 +16°C° 0 mm 1 m/S 720 mmHg 65%
    10:00 +18°C° 0 mm 1 m/S 720 mmHg 59%
    11:00 +19°C° 0 mm 1 m/S 720 mmHg 54%
    12:00 +20°C° 0 mm 1 m/S 720 mmHg 49%
    13:00 +20°C° 0 mm 1 m/S 720 mmHg 49%
    14:00 +21°C° 0 mm 1 m/S 719 mmHg 50%
    15:00 +20°C° 0 mm 2 m/S 719 mmHg 50%
    16:00 +18°C° 0 mm 2 m/S 718 mmHg 57%
    17:00 +18°C° 0 mm 1 m/S 718 mmHg 65%
    18:00 +15°C° 0 mm 1 m/S 718 mmHg 72%
    19:00 +15°C° 0 mm 1 m/S 718 mmHg 69%
    20:00 +15°C° 0 mm 2 m/S 718 mmHg 67%
    21:00 +15°C° 0 mm 2 m/S 718 mmHg 64%
    22:00 +14°C° 0 mm 3 m/S 718 mmHg 59%
    23:00 +14°C° 0 mm 4 m/S 717 mmHg 53%

    Morgen, 16 Dezember, Montag

    Zeit Temperatur Niederschläge Wind Luftdruck Luftfeuchtigkeit
    00:00 +14°C° 0 mm 4 m/S 717 mmHg 48%
    01:00 +14°C° 0 mm 5 m/S 717 mmHg 45%
    02:00 +14°C° 0 mm 5 m/S 716 mmHg 43%
    03:00 +14°C° 0 mm 5 m/S 716 mmHg 40%
    04:00 +14°C° 0 mm 6 m/S 715 mmHg 38%
    05:00 +14°C° 0 mm 7 m/S 715 mmHg 36%
    06:00 +15°C° 0 mm 8 m/S 715 mmHg 34%
    07:00 +15°C° 0 mm 9 m/S 715 mmHg 34%
    08:00 +16°C° 0 mm 10 m/S 715 mmHg 34%
    09:00 +16°C° 0 mm 10 m/S 714 mmHg 35%
    10:00 +17°C° 0 mm 11 m/S 714 mmHg 32%
    11:00 +19°C° 0 mm 12 m/S 713 mmHg 29%
    12:00 +21°C° 0 mm 12 m/S 713 mmHg 27%
    13:00 +21°C° 0 mm 11 m/S 712 mmHg 27%
    14:00 +19°C° 0 mm 11 m/S 711 mmHg 28%
    15:00 +19°C° 0 mm 10 m/S 710 mmHg 28%
    16:00 +18°C° 0 mm 11 m/S 709 mmHg 28%
    17:00 +18°C° 0 mm 12 m/S 709 mmHg 29%
    18:00 +17°C° 0 mm 13 m/S 708 mmHg 29%
    19:00 +17°C° 0 mm 12 m/S 708 mmHg 30%
    20:00 +15°C° 0 mm 12 m/S 709 mmHg 31%
    21:00 +16°C° 0 mm 11 m/S 709 mmHg 33%
    22:00 +13°C° 0 mm 8 m/S 709 mmHg 49%
    23:00 +13°C° 0 mm 5 m/S 709 mmHg 64%

    übermorgen, 17 Dezember, Dienstag

    Zeit Temperatur Niederschläge Wind Luftdruck Luftfeuchtigkeit
    00:00 +12°C° 0 mm 2 m/S 709 mmHg 80%
    01:00 +12°C° 0 mm 2 m/S 709 mmHg 75%
    02:00 +10°C° 0 mm 3 m/S 708 mmHg 69%
    03:00 +10°C° 0 mm 3 m/S 708 mmHg 64%
    04:00 +10°C° 0 mm 3 m/S 708 mmHg 63%
    05:00 +10°C° 0 mm 3 m/S 708 mmHg 62%
    06:00 +10°C° 0 mm 3 m/S 707 mmHg 61%
    07:00 +9°C° 0 mm 5 m/S 708 mmHg 62%
    08:00 +9°C° 0 mm 7 m/S 709 mmHg 63%
    09:00 +8°C° 0 mm 9 m/S 710 mmHg 64%
    10:00 +8°C° 0.7 mm 11 m/S 710 mmHg 64%
    11:00 +8°C° 0.7 mm 13 m/S 711 mmHg 65%
    12:00 +8°C° 0.7 mm 15 m/S 711 mmHg 66%
    13:00 +8°C° 0 mm 15 m/S 711 mmHg 63%
    14:00 +8°C° 0 mm 15 m/S 712 mmHg 60%
    15:00 +7°C° 0 mm 16 m/S 712 mmHg 56%
    16:00 +6°C° 0 mm 14 m/S 713 mmHg 61%
    17:00 +7°C° 0 mm 13 m/S 714 mmHg 65%
    18:00 +6°C° 0 mm 11 m/S 714 mmHg 69%
    19:00 +6°C° 0.1 mm 11 m/S 715 mmHg 70%
    20:00 +6°C° 0.1 mm 10 m/S 716 mmHg 70%
    21:00 +6°C° 0.1 mm 10 m/S 717 mmHg 71%
    22:00 +6°C° 0 mm 9 m/S 717 mmHg 73%
    23:00 +5°C° 0 mm 8 m/S 717 mmHg 75%

    18 Dezember, Mittwoch

    Zeit Temperatur Niederschläge Wind Luftdruck Luftfeuchtigkeit
    00:00 +5°C° 0 mm 7 m/S 717 mmHg 77%
    01:00 +5°C° 0 mm 7 m/S 717 mmHg 77%
    02:00 +5°C° 0 mm 7 m/S 717 mmHg 77%
    03:00 +5°C° 0 mm 7 m/S 718 mmHg 77%
    04:00 +5°C° 0.1 mm 6 m/S 718 mmHg 76%
    05:00 +5°C° 0.1 mm 6 m/S 718 mmHg 76%
    06:00 +5°C° 0.1 mm 6 m/S 718 mmHg 76%
    07:00 +7°C° 0.1 mm 6 m/S 719 mmHg 74%
    08:00 +8°C° 0.1 mm 5 m/S 719 mmHg 72%
    09:00 +8°C° 0.1 mm 5 m/S 720 mmHg 70%
    10:00 +9°C° 0 mm 6 m/S 720 mmHg 69%
    11:00 +10°C° 0 mm 6 m/S 720 mmHg 68%
    12:00 +10°C° 0 mm 7 m/S 720 mmHg 66%
    13:00 +11°C° 0 mm 7 m/S 720 mmHg 64%
    14:00 +12°C° 0 mm 7 m/S 720 mmHg 62%
    15:00 +14°C° 0 mm 7 m/S 720 mmHg 60%
    16:00 +13°C° 0 mm 5 m/S 720 mmHg 63%
    17:00 +12°C° 0 mm 4 m/S 720 mmHg 66%
    18:00 +12°C° 0 mm 2 m/S 720 mmHg 70%
    19:00 +12°C° 0 mm 2 m/S 721 mmHg 67%
    20:00 +11°C° 0 mm 3 m/S 721 mmHg 65%
    21:00 +11°C° 0 mm 3 m/S 721 mmHg 62%
    22:00 +11°C° 0 mm 4 m/S 721 mmHg 62%
    23:00 +11°C° 0 mm 4 m/S 721 mmHg 62%

    19 Dezember, Donnerstag

    Zeit Temperatur Niederschläge Wind Luftdruck Luftfeuchtigkeit
    00:00 +11°C° 0 mm 4 m/S 720 mmHg 61%
    01:00 +11°C° 0 mm 4 m/S 720 mmHg 61%
    02:00 +11°C° 0 mm 4 m/S 720 mmHg 60%
    03:00 +11°C° 0 mm 3 m/S 720 mmHg 59%
    04:00 +11°C° 0 mm 4 m/S 720 mmHg 57%
    05:00 +11°C° 0 mm 4 m/S 720 mmHg 55%
    06:00 +11°C° 0 mm 4 m/S 720 mmHg 53%
    07:00 +12°C° 0 mm 4 m/S 720 mmHg 52%
    08:00 +12°C° 0 mm 4 m/S 721 mmHg 52%
    09:00 +13°C° 0 mm 4 m/S 721 mmHg 51%
    10:00 +15°C° 0 mm 5 m/S 721 mmHg 48%
    11:00 +17°C° 0 mm 5 m/S 721 mmHg 45%
    12:00 +20°C° 0 mm 6 m/S 721 mmHg 41%
    13:00 +20°C° 0 mm 6 m/S 721 mmHg 42%
    14:00 +20°C° 0 mm 6 m/S 720 mmHg 42%
    15:00 +21°C° 0 mm 6 m/S 720 mmHg 43%
    16:00 +19°C° 0 mm 5 m/S 720 mmHg 46%
    17:00 +18°C° 0 mm 4 m/S 720 mmHg 50%
    18:00 +16°C° 0 mm 3 m/S 720 mmHg 53%
    19:00 +16°C° 0 mm 3 m/S 720 mmHg 51%
    20:00 +16°C° 0 mm 3 m/S 720 mmHg 50%
    21:00 +14°C° 0 mm 4 m/S 720 mmHg 49%
    22:00 +14°C° 0 mm 4 m/S 720 mmHg 47%
    23:00 +14°C° 0 mm 4 m/S 719 mmHg 46%

    20 Dezember, Freitag

    Zeit Temperatur Niederschläge Wind Luftdruck Luftfeuchtigkeit
    00:00 +14°C° 0 mm 5 m/S 719 mmHg 45%
    01:00 +13°C° 0 mm 5 m/S 718 mmHg 45%
    02:00 +13°C° 0 mm 5 m/S 718 mmHg 45%
    03:00 +13°C° 0 mm 5 m/S 717 mmHg 45%
    04:00 +13°C° 0 mm 5 m/S 717 mmHg 46%
    05:00 +13°C° 0 mm 5 m/S 717 mmHg 47%
    06:00 +14°C° 0 mm 5 m/S 717 mmHg 47%
    07:00 +14°C° 0 mm 6 m/S 717 mmHg 48%
    08:00 +15°C° 0 mm 7 m/S 717 mmHg 48%
    09:00 +16°C° 0 mm 7 m/S 717 mmHg 48%
    10:00 +17°C° 0 mm 10 m/S 717 mmHg 46%
    11:00 +19°C° 0 mm 12 m/S 717 mmHg 44%
    12:00 +20°C° 0 mm 15 m/S 717 mmHg 43%
    13:00 +20°C° 0 mm 14 m/S 717 mmHg 45%
    14:00 +19°C° 0 mm 13 m/S 716 mmHg 48%
    15:00 +19°C° 0 mm 12 m/S 716 mmHg 51%
    16:00 +18°C° 0.1 mm 9 m/S 716 mmHg 61%
    17:00 +16°C° 0.1 mm 7 m/S 717 mmHg 71%
    18:00 +15°C° 0.1 mm 5 m/S 717 mmHg 80%
    19:00 +15°C° 0.4 mm 5 m/S 717 mmHg 83%
    20:00 +14°C° 0.4 mm 5 m/S 717 mmHg 86%
    21:00 +14°C° 0.4 mm 4 m/S 718 mmHg 90%
    22:00 +14°C° 0.3 mm 4 m/S 718 mmHg 89%
    23:00 +14°C° 0.3 mm 4 m/S 718 mmHg 88%
    Mehr zeigen